Theta_e
301 301 302 301 302 303 303 303 303 304 304 304 304 306 306 307 308 306 302 302 297 292 292 294 294 291 292 291 287 291 289 292 290 285 285 285 285 288 287 289 288 287 285 285 287 286 286 301 298 294 297 301 301 302
301 301 301 302 302 302 303 303 303 303 304 304 304 305 306 307 308 307 300 302 302 294 292 299 297 298 297 296 292 292 291 291 293 287 288 287 286 287 287 284 293 286 291 288 290 290 297 299 299 302 301 301 302 303
302 301 301 301 302 302 302 302 303 303 304 304 305 305 306 307 307 306 302 301 299 293 294 294 294 298 300 299 301 289 294 295 295 296 291 288 286 289 284 285 285 291 294 291 291 293 295 298 300 301 302 302 303 305
302 302 302 302 301 302 302 302 302 303 303 304 305 305 305 306 306 305 301 303 299 294 288 292 298 298 302 302 300 298 296 297 296 296 292 291 288 293 288 288 289 291 293 291 291 294 295 298 298 300 300 303 303 305
303 303 302 302 302 302 302 302 302 303 303 304 305 305 305 305 305 306 303 304 303 295 290 292 298 299 302 302 301 299 297 295 294 292 292 290 293 292 294 293 288 293 291 290 290 295 293 294 299 300 300 301 304 303
303 303 303 303 302 302 302 302 302 303 303 303 304 304 304 305 304 301 296 300 301 299 292 287 297 297 300 302 301 300 299 296 295 294 294 295 295 294 289 289 292 294 295 297 295 299 298 299 301 302 300 302 304 304
303 304 303 303 303 303 302 302 303 303 303 304 304 304 306 306 302 297 296 300 301 301 293 288 289 297 299 301 301 300 298 298 296 295 294 293 294 294 291 287 293 295 296 297 298 300 298 299 298 302 302 302 304 305
304 304 304 303 303 303 302 302 302 303 303 303 303 305 306 305 303 301 303 303 303 299 296 287 290 293 299 295 294 299 296 296 295 294 295 292 294 293 288 293 294 295 296 296 298 299 299 300 300 302 303 303 303 303
304 304 304 304 303 303 302 302 302 303 303 302 303 305 303 300 298 300 305 305 303 297 292 290 286 286 299 297 296 295 295 291 296 291 292 292 288 287 290 291 292 293 293 296 297 298 299 299 300 301 301 302 302 303
304 304 304 304 303 303 303 302 302 303 303 301 302 299 295 298 304 306 300 296 296 296 294 289 294 288 294 294 292 291 292 288 287 290 294 288 288 293 294 294 295 297 297 298 296 294 296 297 299 300 300 302 303 305
303 303 304 303 303 303 302 302 302 303 298 295 292 294 298 302 300 296 293 291 293 291 295 295 294 291 297 291 289 292 289 289 285 289 288 288 287 292 297 296 298 300 301 300 300 300 300 300 299 300 301 302 304 305
303 303 303 303 303 303 302 302 302 297 295 294 294 297 297 297 293 289 288 290 291 290 294 294 295 295 295 296 291 292 287 289 282 291 288 286 291 297 297 296 298 300 301 300 302 302 302 303 303 302 303 303 304 306
302 303 303 303 303 302 302 302 302 300 300 299 295 293 293 292 286 286 284 287 288 293 295 295 293 295 293 294 289 290 285 285 290 288 287 290 296 297 297 297 298 300 302 301 302 303 304 304 305 305 304 305 306 306
302 302 302 303 302 302 300 301 301 299 295 292 291 286 287 287 288 290 291 292 295 293 294 294 293 294 294 290 290 285 287 287 284 283 285 293 297 297 298 299 299 299 300 300 301 301 302 303 304 306 307 306 305 305
302 302 302 302 301 299 300 301 300 298 293 290 293 286 288 293 293 294 294 294 296 296 294 292 292 292 291 288 289 286 283 282 283 287 293 298 299 298 298 299 299 300 301 301 302 301 302 303 303 304 307 308 307 306
302 301 298 299 299 300 300 299 297 297 294 292 293 291 292 290 291 292 293 294 297 294 294 293 290 288 287 287 284 282 282 281 288 289 297 299 298 299 299 300 301 301 302 302 303 303 304 303 302 303 304 306 308 307
301 297 298 299 299 300 300 295 296 296 294 295 293 296 294 293 293 294 295 295 296 295 292 292 288 287 288 285 283 286 284 290 294 298 299 299 298 298 299 300 301 301 302 302 303 303 302 303 305 303 302 303 305 307
297 299 300 299 299 298 295 296 294 295 293 296 294 295 293 295 295 295 296 296 295 294 293 292 293 289 287 284 286 289 291 295 297 298 299 300 300 300 299 300 300 300 301 302 303 303 303 303 302 302 303 303 303 303
299 300 300 300 299 294 289 292 295 289 293 296 295 294 294 295 296 297 297 296 297 297 296 294 291 290 291 292 293 295 296 296 298 300 300 301 301 300 299 300 300 301 301 302 303 303 304 304 303 305 304 303 300 301
300 300 300 299 297 291 289 291 297 293 290 295 294 293 294 295 296 295 296 295 295 295 292 291 292 295 295 298 299 299 300 300 299 298 299 301 301 301 300 300 300 301 302 302 303 297 303 302 304 304 305 303 301 299
296 296 296 296 294 291 290 290 290 292 294 292 295 294 294 293 293 293 294 295 292 292 291 295 296 298 300 300 300 301 300 300 299 300 300 299 302 301 301 301 301 302 301 301 301 302 301 302 301 302 305 301 304 301
294 295 294 295 290 291 289 292 289 291 289 292 292 293 291 291 291 292 293 292 293 294 295 297 298 299 298 297 299 300 302 301 301 300 294 297 300 300 301 300 299 299 300 301 301 301 302 303 300 301 301 301 300 299
295 293 291 290 287 287 287 294 288 291 286 287 290 289 289 289 291 293 290 292 294 297 298 298 299 299 299 300 300 300 301 301 301 301 300 301 302 302 301 300 301 300 300 301 302 301 301 294 299 299 298 300 301 299
294 289 287 285 285 283 289 288 291 290 289 288 288 287 288 290 291 289 288 292 295 297 296 297 297 297 299 298 299 300 301 301 301 301 301 301 300 302 302 302 302 301 301 302 302 301 301 301 296 298 297 298 297 296
285 284 284 282 286 286 284 285 287 286 286 288 287 287 289 290 288 287 287 291 294 294 296 298 297 297 297 298 300 300 300 300 300 299 300 300 301 301 301 301 299 299 301 303 301 300 299 300 299 298 296 294 293 296
280 283 283 282 283 283 285 284 285 286 286 286 287 289 289 287 285 285 288 290 291 292 293 294 295 296 296 298 299 299 299 302 301 298 300 300 301 300 298 297 297 299 301 303 301 298 297 297 296 295 293 292 289 293
279 279 284 288 287 286 285 287 288 286 285 284 287 286 286 282 283 288 291 293 294 295 295 296 296 296 296 298 300 302 302 301 301 301 301 300 300 300 299 297 296 298 300 300 298 298 296 295 294 293 291 291 290 291
283 283 280 284 283 286 284 284 284 284 286 289 288 285 284 284 286 292 294 296 296 297 297 296 295 297 298 300 300 299 299 300 299 299 298 297 297 298 299 300 300 286 298 298 297 297 295 294 293 291 290 290 290 290
282 284 284 281 283 283 284 284 284 288 291 290 287 286 288 292 295 295 297 297 298 297 295 295 296 296 296 297 298 300 299 298 296 294 294 294 294 295 297 299 300 299 297 293 284 289 291 292 291 291 290 289 289 289
281 284 282 282 281 280 284 287 287 290 291 292 292 291 291 293 296 297 296 295 294 294 295 296 295 294 294 295 294 293 294 296 296 296 294 294 294 295 295 296 298 299 298 296 293 291 285 289 287 290 288 288 287 287
285 284 282 282 281 285 287 289 290 290 289 289 291 289 288 291 294 292 292 292 293 295 295 294 294 295 294 293 293 292 291 293 294 294 295 294 294 294 294 295 296 297 298 295 293 291 289 288 288 286 286 285 284 284
284 282 282 279 281 286 288 286 287 286 287 287 286 289 289 288 287 288 289 289 289 289 288 291 293 293 293 292 291 290 287 290 290 290 290 291 292 292 293 295 296 296 294 292 290 289 288 287 286 285 284 283 283 282
282 283 283 282 282 282 286 285 285 284 285 285 286 288 288 287 283 284 288 288 287 287 286 287 288 289 289 289 288 286 285 285 283 282 282 282 283 286 292 293 292 291 289 288 287 287 286 285 284 283 283 282 281 280
Wind_Speed
19 19 20 21 22 22 23 24 23 23 23 22 22 20 18 17 12 2 2 5 3 4 12 9 5 7 8 6 4 7 7 1 2 2 3 3 3 2 3 2 2 2 5 4 4 5 4 17 4 4 7 9 12 13
18 19 20 20 20 21 22 24 24 23 23 22 21 21 18 16 10 3 3 3 3 4 9 13 17 20 21 21 8 3 4 6 3 3 2 3 2 3 5 0 2 1 3 1 3 4 9 9 0 8 7 10 12 14
20 20 20 21 21 21 22 23 24 24 24 23 22 21 18 15 9 5 3 3 2 4 7 3 6 1 4 9 9 4 3 3 3 2 3 2 3 2 4 3 3 2 3 1 3 3 11 8 8 10 12 14 14 15
20 20 19 21 22 22 22 23 24 24 24 23 22 20 18 14 8 8 3 2 2 3 4 6 4 6 1 6 10 12 7 4 4 3 2 3 3 4 3 2 3 3 3 4 3 4 10 5 12 15 18 16 18 18
20 20 20 20 21 23 23 23 24 25 25 24 24 21 19 14 7 6 4 4 4 0 4 7 15 2 5 8 8 10 8 4 2 1 3 2 2 2 1 2 2 6 5 3 3 5 5 13 15 19 17 20 19 20
18 19 20 19 21 22 24 25 25 25 27 28 27 25 19 11 4 2 3 3 5 4 3 5 4 3 6 8 2 2 3 2 2 2 3 3 3 3 3 2 3 4 5 6 6 11 14 17 15 14 16 20 18 19
18 19 19 21 21 22 23 25 26 26 27 27 26 25 16 7 5 3 2 2 9 5 2 5 6 2 6 5 2 2 1 1 1 1 2 4 3 4 3 3 6 9 10 12 11 11 9 8 12 18 17 17 18 17
18 19 19 20 21 21 23 24 26 27 29 28 26 16 4 13 1 2 2 10 8 2 1 3 6 4 4 3 3 3 3 1 1 2 1 3 4 3 3 7 14 14 15 14 9 9 12 16 17 15 14 14 17 16
18 18 18 18 20 20 22 24 26 27 29 27 18 8 2 1 1 2 7 11 1 3 2 2 3 4 5 2 2 2 2 2 1 2 2 4 2 3 8 14 14 14 13 16 14 14 15 13 16 16 14 15 15 16
17 17 18 17 20 20 21 22 25 27 28 19 1 2 1 2 10 2 3 3 3 3 2 3 2 3 2 2 2 3 1 2 2 2 3 1 2 5 8 12 12 14 14 16 13 13 13 16 16 18 16 13 14 15
18 17 17 17 20 20 22 22 23 23 9 6 6 3 5 8 2 1 2 3 2 3 4 4 4 3 1 2 2 1 2 2 2 3 5 3 5 6 10 14 14 12 12 13 12 13 13 16 16 17 18 15 14 15
18 17 16 17 18 19 19 20 19 6 4 5 6 6 4 2 1 3 2 1 4 2 3 2 1 3 1 0 2 1 1 2 1 4 2 3 4 11 9 12 11 13 13 14 13 13 13 14 14 15 16 15 13 14
19 18 16 18 19 19 20 18 13 13 11 3 3 3 1 1 2 4 4 2 2 3 3 1 2 1 2 1 1 0 1 0 3 1 2 3 9 11 11 9 13 12 15 15 14 13 11 12 12 12 14 15 14 12
18 18 17 17 19 20 10 13 15 8 3 3 2 4 4 3 5 4 4 2 2 3 2 1 1 1 0 2 1 2 1 1 2 1 1 3 10 12 12 10 11 15 14 12 14 12 13 13 13 13 12 12 13 12
17 18 16 18 9 11 17 18 17 2 3 4 4 5 6 4 3 2 3 3 3 1 2 2 2 2 1 2 0 1 2 0 3 3 2 3 8 10 11 12 12 12 12 13 14 11 13 13 13 15 14 11 11 12
18 14 3 4 14 20 19 15 1 3 3 4 6 4 3 2 3 3 4 4 2 3 2 1 1 2 1 1 2 3 2 4 2 3 3 4 8 8 9 10 10 11 12 11 13 14 15 15 14 10 13 12 11 11
15 4 4 11 16 24 19 3 3 5 5 5 6 4 3 3 4 3 4 3 4 3 2 2 3 1 3 2 2 4 5 4 4 3 3 5 5 7 7 7 9 10 10 12 13 14 12 11 12 10 15 14 13 11
5 6 10 13 10 10 2 3 3 4 7 7 5 4 4 4 4 4 4 4 5 4 4 3 4 5 4 3 3 4 6 5 5 4 5 5 3 4 4 5 5 7 9 10 10 11 13 13 11 9 13 12 13 13
10 9 13 14 6 4 4 3 3 5 7 3 4 3 3 3 5 5 3 4 4 2 4 4 4 4 4 4 5 4 4 4 2 2 3 4 4 2 4 4 5 6 7 8 10 9 10 12 9 9 10 9 7 8
16 13 12 10 3 2 4 4 3 5 5 2 3 3 3 3 1 3 5 5 5 4 5 6 7 5 5 5 6 6 4 3 3 2 3 1 2 3 2 3 4 5 5 7 7 5 8 9 8 10 10 10 9 10
3 2 4 3 3 5 5 3 4 4 4 4 2 2 3 1 3 4 4 5 5 5 5 6 8 9 8 4 4 5 5 5 5 3 2 3 2 2 1 2 4 3 4 5 7 8 7 8 8 8 10 9 11 9
3 2 2 3 4 4 6 5 5 3 3 4 3 3 3 3 4 4 3 5 5 7 6 6 7 8 7 7 8 10 7 7 5 3 4 3 3 1 1 2 4 4 4 5 6 7 8 8 8 8 7 8 10 12
3 3 2 3 5 6 7 4 5 4 5 3 1 3 3 3 3 2 3 4 4 5 7 7 7 6 6 4 5 8 9 9 5 4 3 2 2 2 3 2 1 3 4 4 4 5 7 6 8 8 7 8 9 11
3 3 4 5 8 5 3 4 4 3 3 3 3 4 3 3 1 3 4 4 4 1 3 7 5 4 2 4 5 7 7 6 5 3 3 3 2 2 2 2 1 1 3 4 3 4 6 6 6 6 8 9 7 7
5 6 5 8 4 5 6 4 5 4 5 6 4 4 3 1 2 3 4 4 3 4 5 2 4 5 6 4 3 4 6 6 5 5 4 3 1 1 1 1 2 3 4 4 5 5 5 5 6 7 8 9 11 12
8 8 9 7 5 6 6 4 6 6 4 5 6 2 1 2 3 5 1 4 4 5 7 6 6 6 6 5 5 6 6 6 6 5 4 3 2 1 2 3 3 3 5 4 4 5 6 6 7 8 9 11 11 11
8 8 6 5 3 3 4 4 3 2 3 4 3 4 3 3 5 2 2 0 1 2 5 5 5 6 6 4 4 4 5 7 5 3 6 5 4 3 2 2 3 3 3 4 5 6 7 6 7 7 7 7 9 10
8 6 10 6 5 4 5 3 3 5 5 3 2 6 5 5 3 1 2 2 3 4 4 4 4 5 4 2 4 6 5 6 8 8 7 5 4 3 4 3 4 3 5 4 5 5 5 5 5 6 7 8 8 9
7 5 5 5 6 5 8 7 8 6 2 3 4 5 4 2 1 2 3 5 4 5 7 6 4 2 1 3 4 4 6 8 11 12 11 6 5 3 3 4 5 4 5 7 8 7 8 7 6 6 6 6 6 7
7 7 6 8 11 11 10 7 6 4 3 6 4 5 5 4 2 4 4 5 5 6 7 6 4 3 4 4 5 4 2 4 3 3 6 6 6 6 5 4 4 5 5 6 6 6 4 5 5 6 7 6 6 6
3 8 7 8 13 12 12 9 9 8 6 7 6 8 10 7 2 5 7 7 5 6 4 2 3 3 4 4 4 5 4 1 2 4 4 6 7 6 5 4 3 3 5 6 6 6 7 6 6 7 8 8 9 8
6 10 8 9 9 8 9 7 6 8 9 10 11 10 8 6 4 3 5 6 7 7 7 7 6 4 1 5 5 5 5 7 5 4 4 4 5 4 2 3 4 6 8 9 8 7 9 8 7 7 7 8 8 10
6 7 8 8 6 6 6 5 4 5 5 4 6 6 3 3 4 3 3 6 5 6 6 5 5 6 7 8 8 8 9 9 10 9 8 7 7 5 3 4 6 8 11 10 9 9 10 11 9 9 9 7 8 9
Wind_Direction
321 322 325 328 328 327 329 330 333 334 334 338 340 336 325 314 312 238 254 191 196 262 286 267 264 250 276 267 283 315 313 139 264 296 296 298 272 356 296 63 80 142 161 184 216 229 167 2 5 71 352 327 331 332
319 321 321 322 324 325 326 328 330 332 331 332 338 335 328 314 313 255 243 159 180 239 272 294 276 263 253 253 269 255 287 294 322 326 307 279 328 332 344 192 11 194 344 83 313 24 341 342 92 33 357 336 337 326
315 319 318 319 321 322 323 325 327 330 329 329 332 334 329 317 299 279 253 141 177 267 281 265 237 249 226 224 220 244 229 301 312 32 317 304 323 320 356 35 302 1 354 338 296 30 338 70 45 4 351 339 332 335
310 313 317 317 319 320 321 323 326 326 327 326 328 330 326 317 291 271 239 155 134 270 296 282 272 320 22 189 186 206 254 280 294 279 285 296 306 360 8 350 330 355 305 359 279 351 328 244 345 335 334 334 339 336
304 309 314 317 319 318 318 321 323 325 324 325 325 328 325 313 278 262 254 217 187 261 296 295 310 109 271 224 233 216 214 223 253 281 261 300 274 314 248 201 26 340 5 0 344 341 294 288 313 325 324 329 330 333
299 304 311 317 319 318 317 319 322 323 323 322 326 323 320 299 167 199 265 180 185 175 276 299 318 272 302 334 7 236 85 136 250 272 301 292 299 290 307 321 155 338 329 332 289 307 291 281 291 301 320 321 325 328
296 301 307 314 318 317 318 318 321 322 321 320 325 321 311 215 149 211 336 49 163 159 259 294 296 317 309 325 351 37 85 92 275 296 309 318 310 323 284 273 328 334 322 307 296 298 300 329 310 314 310 318 322 324
293 297 304 312 314 317 319 319 321 321 317 322 325 326 44 134 338 257 67 153 160 174 198 290 284 307 22 320 354 13 351 265 73 333 267 310 286 288 270 351 330 324 323 307 321 320 302 303 300 300 314 321 328 332
292 293 300 307 311 319 319 320 321 320 317 325 326 118 117 95 175 60 21 155 155 281 267 213 282 302 358 328 5 345 336 21 341 11 2 333 318 347 307 315 316 311 309 300 309 311 309 300 300 302 317 322 325 324
292 292 297 306 314 319 321 322 321 319 317 325 305 268 110 54 316 103 214 210 212 196 216 252 201 268 316 335 28 341 28 24 340 27 289 108 289 279 289 296 295 305 287 298 298 302 301 301 310 309 308 310 310 315
296 296 296 304 313 317 322 321 322 321 337 3 354 320 335 306 185 197 225 229 169 225 208 233 223 284 136 314 317 360 350 356 10 11 337 1 352 323 346 353 344 317 308 299 287 281 284 283 289 297 302 302 306 310
298 298 296 298 304 311 317 318 319 332 311 287 297 297 272 279 173 235 220 220 226 281 191 227 189 213 152 278 257 209 271 228 76 323 318 6 290 327 346 339 333 330 329 340 319 289 283 282 283 285 289 295 297 303
300 299 295 297 301 305 311 306 308 311 306 258 192 241 224 213 255 223 210 199 244 203 216 206 319 243 151 165 242 268 265 98 313 3 6 251 313 333 341 318 319 324 338 332 340 350 311 304 297 289 288 288 291 294
301 298 297 296 297 305 311 305 320 332 296 254 227 276 214 214 236 204 197 204 229 237 237 256 220 258 140 207 215 252 56 237 108 115 278 311 332 334 332 332 328 335 339 325 327 334 337 334 327 314 299 294 294 291
304 299 299 296 289 313 317 320 321 225 197 237 189 230 226 244 253 222 226 266 220 235 181 159 145 225 150 227 339 317 210 155 221 201 233 287 323 325 323 329 328 332 336 335 338 345 344 340 346 344 323 306 293 287
312 308 273 300 319 311 319 319 252 172 226 228 236 240 205 251 244 209 201 245 187 153 135 161 163 219 184 169 199 209 202 234 240 223 249 294 309 322 322 323 326 334 337 339 345 352 352 351 340 341 348 349 320 307
310 230 275 311 324 311 314 256 203 221 228 226 239 219 217 263 252 245 197 208 148 180 225 170 224 241 119 217 225 196 212 220 222 246 285 291 305 315 315 309 326 342 346 343 346 356 352 345 339 351 2 351 339 332
241 259 273 295 319 312 262 222 249 247 240 234 237 211 193 224 228 235 214 176 177 193 173 217 129 189 208 206 227 224 228 254 259 251 272 289 285 296 308 313 336 341 342 340 341 347 346 356 348 346 359 346 349 352
295 293 285 282 315 309 282 239 212 264 248 261 244 227 224 234 226 249 232 181 195 156 149 183 229 198 206 206 230 239 230 213 258 306 274 286 248 276 301 330 355 352 349 349 346 342 341 348 345 346 360 354 338 343
302 291 281 292 218 231 267 257 211 254 263 272 248 221 223 228 252 219 222 191 183 181 194 209 225 224 214 218 206 226 227 165 176 267 303 190 196 296 6 357 352 330 336 352 354 352 351 351 343 343 350 347 354 353
283 273 324 161 182 219 276 279 254 237 282 266 284 240 250 227 232 211 215 159 187 213 230 220 235 234 221 225 212 217 214 188 201 214 267 294 6 326 316 1 353 350 345 357 352 352 354 358 347 341 351 345 345 345
258 344 294 209 236 229 248 233 248 297 256 265 272 228 252 248 246 218 146 197 226 230 215 221 222 227 224 215 211 206 205 193 202 209 227 242 267 283 284 348 341 351 353 360 356 351 355 9 358 352 354 350 357 355
206 185 223 230 234 226 253 183 225 226 243 243 261 242 229 236 225 139 234 223 251 237 230 227 234 230 237 241 196 194 194 194 199 200 188 227 276 261 232 213 315 337 345 9 356 351 2 11 20 9 358 359 5 5
109 235 229 224 202 251 250 233 218 242 240 240 226 250 224 229 139 227 238 255 266 285 234 235 213 185 156 182 207 202 186 190 185 148 169 201 246 239 251 282 241 335 331 316 354 13 13 20 26 28 17 17 9 4
231 223 224 230 219 227 218 228 212 217 238 208 233 250 235 156 238 251 252 286 315 293 306 274 218 227 232 223 215 181 165 184 175 171 176 199 204 232 279 13 81 60 354 337 32 22 21 19 24 28 31 22 5 8
228 220 213 211 212 207 211 231 210 226 219 210 231 242 147 183 232 247 235 353 355 359 350 330 302 272 239 221 187 173 171 172 151 175 165 173 157 87 39 17 14 64 23 8 10 37 34 20 22 30 27 20 14 15
225 230 209 226 246 232 245 248 254 260 254 229 217 186 180 223 242 232 146 176 350 328 340 326 302 278 262 227 192 172 166 169 164 143 124 133 129 110 86 66 73 61 44 49 42 36 37 26 24 32 32 36 32 25
221 216 203 207 201 216 244 244 232 223 224 215 203 205 191 206 249 170 197 209 251 300 319 8 349 317 290 213 155 139 131 125 114 114 113 109 92 91 101 103 87 101 94 91 102 79 62 49 44 42 39 36 35 33
218 204 209 226 222 208 213 223 235 229 230 214 235 240 233 193 33 291 302 323 307 317 332 321 350 343 345 82 106 139 151 163 159 170 185 172 162 146 113 125 130 119 98 83 47 60 78 72 66 63 58 46 34 39
217 189 213 227 229 240 232 211 245 250 249 259 270 293 284 266 301 24 353 345 332 312 302 293 289 233 242 206 153 136 137 179 183 203 203 197 176 142 146 138 145 145 129 123 111 105 113 99 96 74 66 61 51 39
182 184 221 234 244 247 254 254 259 261 252 252 247 245 257 275 117 46 17 344 318 311 308 318 60 297 250 189 186 174 164 143 172 155 143 132 134 135 136 139 146 152 132 123 118 116 108 91 80 75 75 76 74 72
196 208 225 230 242 247 246 249 236 234 246 244 244 240 240 225 211 69 4 353 9 6 1 355 351 330 31 94 85 70 74 103 87 57 61 101 110 101 111 128 126 125 121 114 111 105 95 90 88 86 76 73 74 75
218 221 226 246 249 249 218 209 226 252 219 214 209 201 160 138 97 37 360 0 4 359 5 15 32 42 57 78 93 92 83 79 66 61 58 49 60 48 68 93 103 109 108 106 104 104 102 105 102 97 92 87 82 73